Regional Weather Roundup
Issued by NWS San Angelo, TX

Home | Current Version | Previous Version | Text Only | Print | Product List | Glossary On
Versions: 1 2 3 4 5 6 7 8 9 10 11 12 13 14 15 16 17 18 19 20 21 22 23 24 25 26 27 28 29 30 31 32 33 34 35 36 37 38 39 40 41 42 43 44 45 46 47 48 49 50
000
ASUS44 KSJT 260010
RWRSJT
WEST CENTRAL TEXAS REGIONAL WEATHER ROUNDUP
NATIONAL WEATHER SERVICE SAN ANGELO TX
700 PM CDT TUE APR 25 2017

NOTE: "FAIR" INDICATES FEW OR NO CLOUDS BELOW 12,000 FEET WITH NO
SIGNIFICANT WEATHER AND/OR OBSTRUCTIONS TO VISIBILITY.

TXZ049-054-064>066-071>073-076>078-098-099-113-114-127-128-139-140-
154-155-168>170-260100
...LOCATIONS ACROSS WEST CENTRAL TEXAS...

CITY           SKY/WX    TMP DP  RH WIND       PRES   REMARKS
SAN ANGELO     SUNNY     93  32  11 S14       29.42F
ABILENE        PTSUNNY   89  38  16 S14G24    29.40F
DYESS AFB      NOT AVBL
JUNCTION       MOSUNNY   90  50  25 S16G25    29.46F
SWEETWATER     SUNNY     91  28  10 SW15G26   29.44F
BROWNWOOD      SUNNY     84  64  51 SE15G21   29.43R
COLEMAN        PTCLDY    87  40  18 S9        29.43S
SONORA         SUNNY     91  43  18 SW12G18   29.52F
OZONA            N/A     91  32  12 S16G24    29.49F
BRADY          NOT AVBL
$$

TEXAS PANHANDLE/OKLAHOMA PANHANDLE

CITY           SKY/WX    TMP DP  RH WIND       PRES   REMARKS
AMARILLO       PTSUNNY   71  43  36 N21       29.48R
BORGER         CLOUDY    61  48  62 NE16G25   29.50R
CANADIAN       CLOUDY    61  50  67 NE14G23   29.49R
DALHART        CLOUDY    57  50  77 E14       29.53R
DUMAS          MOCLDY    57  44  61 NE15G22   29.51R
GUYMON         NOT AVBL
HEREFORD       PTCLDY    74  36  25 W26G37    29.49R
PAMPA          CLOUDY    62  49  62 NE21      29.50S
PERRYTON       CLOUDY    59  50  71 N13G20    29.51R
$$

SOUTHERN PANHANDLE/SOUTH PLAINS/ROLLING PLAINS

CITY           SKY/WX    TMP DP  RH WIND       PRES   REMARKS
LUBBOCK        PTSUNNY   82  30  15 W22G28    29.46R
SNYDER         SUNNY    N/A N/A N/A W18       29.43S
CHILDRESS      CLOUDY    80  40  23 NW6       29.42R
SEMINOLE       CLOUDY    83  29  14 W16G31    29.50S
$$

PERMIAN BASIN

CITY           SKY/WX    TMP DP  RH WIND       PRES   REMARKS
MIDLAND        CLOUDY    89  28  11 W17G28    29.45F
ODESSA         CLOUDY    89  28  11 W17G31    29.47F
WINK           CLOUDY    89  25  10 W26G37    29.43S
$$

FAR WEST/SOUTHWEST MOUNTAINS/TRANS PECOS

CITY           SKY/WX    TMP DP  RH WIND       PRES   REMARKS
ALPINE         CLEAR     86  21   9 W18G32    29.65S
DRYDEN           N/A     97  11   4 SW16G23   29.45F
EL PASO        MOSUNNY   83  24  11 W28G47    29.56F
FORT STOCKTON  SUNNY     94  22   7 W21       29.47S
GUADALUPE PASS CLOUDY    76  25  15 W58G66    29.57F
MARFA          SUNNY     84  24  11 SW23G36   29.63S
PECOS          MOCLDY    91  29  11 NW14G22   29.43S
$$

DALLAS/FORT WORTH METROPLEX

CITY           SKY/WX    TMP DP  RH WIND       PRES   REMARKS
DFW AIRPORT    CLOUDY    83  68  60 S24G31    29.41F
FTW MEACHAM    MOSUNNY   83  68  60 S21G30    29.41S
DAL-EXECUTIVE  MOSUNNY   82  68  62 S14G28    29.42F
GRAND PRAIRIE  SUNNY     82  66  57 S16G25    29.45S
ADDISON        MOSUNNY   82  66  57 S20G36    29.43S
MESQUITE       PTCLDY    81  66  61 S16G25    29.45F
LANCASTER      CLOUDY    80  67  63 S17G26    29.44F
$$

NORTH CENTRAL TEXAS

CITY           SKY/WX    TMP DP  RH WIND       PRES   REMARKS
SHRMAN/DENISON PTCLDY    79  66  64 S16       29.42S
GAINESVILLE    MOSUNNY   79  66  64 S15G21    29.41F
BRIDGEPORT     PTCLDY    83  66  55 S21       29.39S
DENTON         MOSUNNY   81  67  62 S18G26    29.40F
WAXAHACHIE     MOCLDY    80  68  67 S14G22    29.45F
GRANBURY       CLOUDY    85  66  54 SE17G28   29.42R
$$

WESTERN NORTH TEXAS

CITY           SKY/WX    TMP DP  RH WIND       PRES   REMARKS
WICHITA FALLS  CLOUDY    86  58  38 SE9       29.31F
VERNON         CLOUDY    85  31  14 N10       29.36F
BRECKENRIDGE   CLEAR     90  49  24 S13       29.36F HAZE
COMANCHE       MOSUNNY   84  64  50 S14G21    29.43S
$$

CENTRAL AND SOUTH CENTRAL TEXAS

CITY           SKY/WX    TMP DP  RH WIND       PRES   REMARKS
AUSTIN/BERGSTM PTSUNNY   84  70  62 S13       29.48S
WACO           MOSUNNY   80  69  69 S17       29.46S
HILLSBORO      CLOUDY    81  69  67 S16G24    29.45F
TEMPLE         NOT AVBL
KILLEEN-GRAY   SUNNY     83  68  60 SE18G24   29.45F
FORT HOOD      SUNNY     83  68  61 S13       29.43F
GEORGETOWN     MOSUNNY   84  68  58 SE14G20   29.48
LAGO VISTA     FAIR      84  68  57 S14       29.51S
SAN MARCOS     CLOUDY    82  70  65 S16G23    29.49F
NEW BRAUNFELS  CLOUDY    85  70  60 S16       29.47F
RANDOLPH AFB   CLOUDY    85  73  68 SE17      29.48S
SAN ANTONIO    PTSUNNY   88  64  44 S13       29.48F
STINSON        SUNNY     90  66  45 S5        29.45F
PLEASANTON     NOT AVBL
LA GRANGE      CLOUDY    81  72  75 S13G22    29.51R
GIDDINGS       MOCLDY    80  68  67 S8G20     29.53R
$$

EAST TEXAS

CITY           SKY/WX    TMP DP  RH WIND       PRES   REMARKS
PARIS          CLOUDY    79  64  61 S18       29.48S
CLARKSVILLE    NOT AVBL
TYLER          CLOUDY    80  67  64 S14       29.49F
LONGVIEW       CLOUDY    79  68  69 SE10      29.52S
PALESTINE      PTCLDY    82  69  65 S13G23    29.51S
NACOGDOCHES    CLOUDY    77  66  69 S12G17    29.54S
$$

TEXAS HILL COUNTRY AND EDWARDS PLATEAU

CITY           SKY/WX    TMP DP  RH WIND       PRES   REMARKS
LLANO          CLOUDY    86  64  48 S12       29.48S
HORSESHOE BAY  FAIR      86  64  48 S10G17    29.47F
KERRVILLE      MOSUNNY   82  67  60 S10       29.51F
FREDERICKSBRG  CLOUDY    83  60  46 S8        29.51S
ROCKSPRINGS    PTCLDY    82  59  44 S8        29.54F
HONDO          CLOUDY    89  66  46 SE10      29.47F
UVALDE         CLOUDY    87  65  48 CALM      29.45F
DEL RIO        CLOUDY    88  64  44 E12       29.40F
$$

SOUTHEAST TEXAS

CITY           SKY/WX    TMP DP  RH WIND       PRES   REMARKS
COLLEGE STN    PTSUNNY   81  67  62 S20G28    29.52S
CALDWELL       NOT AVBL
CROCKETT       MOCLDY    77  70  78 SE8       29.56S
BRENHAM        CLOUDY    81  69  68 S21G28    29.53F
HUNTSVILLE     CLOUDY    81  66  60 S14G22    29.54S
CONROE         CLOUDY    79  68  69 S16       29.57S
HOUSTON BUSH   PTSUNNY   79  68  69 S17G23    29.58R
HOUSTON HOBBY  CLOUDY    77  70  79 S16G23    29.58F
PERLAND        CLOUDY    79  70  74 S13G21    29.61S
WHARTON        CLOUDY    77  68  73 SE15      29.57S
$$

THE UPPER TEXAS COAST

CITY           SKY/WX    TMP DP  RH WIND       PRES   REMARKS
ORANGE         CLOUDY    75  69  81 S12G17    29.67S
PORT ARTHUR    CLOUDY    76  69  79 S14G21    29.63F
GALVESTON      CLOUDY    78  73  84 SE16G23   29.61F
ANGLETON       CLOUDY    80  71  74 S18       29.60S
BAY CITY       CLOUDY    78  71  80 S15       29.58F
$$

TEXAS COASTAL BEND, RIO GRANDE PLAINS DEEP SOUTH TEXAS

CITY           SKY/WX    TMP DP  RH WIND       PRES   REMARKS
VICTORIA       CLOUDY    79  70  74 S22G29    29.54S
BEEVILLE       FAIR      83  74  76 SE16G22   29.49S
ROCKPORT       PTSUNNY   79  71  76 SE20G29   29.51S
PORT ARANSAS   CLEAR     78  72  82 S22G30    29.51F
PORT LAVACA    CLOUDY    78  73  86 S20G29    29.55S
CORPUS CHRISTI MOSUNNY   82  72  71 SE25G36   29.49S
KINGSVILLE NAS MOSUNNY   84  75  74 SE25G35   29.46S
COTULLA        SUNNY     97  55  24 SE13      29.42F
LAREDO         SUNNY     98  52  21 SE10      29.43F
BROWNSVILLE    PTSUNNY   83  73  72 S21G31    29.54R
PORT ISABEL    PTSUNNY   82  72  71 S23G33    29.52F
HEBBRONVILLE   CLEAR     94  55  26 S7        29.47F
MCALLEN        SUNNY     88  73  61 SE24      29.48F
WESLACO        SUNNY     86  73  64 S14G24    29.49S
FALFURRIAS     CLEAR     94  66  40 SE16      29.45R
EDINBURG       CLEAR     89  70  52 S15G22    29.48S
$$




USA.gov is the U.S. government's official web portal to all federal, state and local government web resources and services.